Regional Weather Roundup
Issued by NWS

Home | Current Version | Previous Version | Text Only | Print | Product List | Glossary Off
Versions: 1 2 3 4 5 6 7 8 9 10 11 12 13 14 15 16 17 18 19 20 21 22 23 24 25 26 27 28 29 30 31 32 33 34 35 36 37 38 39 40 41 42 43 44 45 46 47 48 49 50

000
ASUS43 KIND 241809
RWRIN

WEATHER ROUNDUP FOR INDIANA
NATIONAL WEATHER SERVICE INDIANAPOLIS IN
100 PM EST SAT JAN 24 2015

NOTE: "FAIR" INDICATES FEW OR NO CLOUDS BELOW 12,000 FEET WITH NO
SIGNIFICANT WEATHER AND/OR OBSTRUCTIONS TO VISIBILITY.

* - STATION DOES NOT REPORT WEATHER SUCH AS PRECIPITATION OR FOG.

+ - STATION NOT QUALITY CONTROLLED BY THE NATIONAL WEATHER SERVICE.
    USE DATA WITH CAUTION...ESPECIALLY DEWPOINT AND RELATIVE
    HUMIDITY OBSERVATIONS.

INZ001>003-010>013-019-020-241900-
NORTHWEST INDIANA

CITY           SKY/WX    TMP DP  RH WIND       PRES   REMARKS
GARY /AIRPORT/ PTSUNNY   43  27  52 W14       29.69F
KNOX *+        SUNNY     39  20  45 W10       29.67F
LA PORTE +     MOSUNNY   41  31  68 NW10      29.68F
6HR MIN TEMP:  28; 6HR MAX TEMP:  41;

MICHIGAN CITY+ CLOUDY    39  27  60 W10       29.68F
MONTICELLO +   MOSUNNY   37  33  82 W8        29.71F
RENSSELAER +   SUNNY     37  34  87 W10G17    29.71F
VALPARAISO     CLOUDY    40  29  64 W10       29.68F
6HR MIN TEMP:  28; 6HR MAX TEMP:  40;


$$

LMZ046-743>745-241900-
SOUTHERN LAKE MICHIGAN

STATION/POSITION TIME  TEMP WIND        PRES
                       AIR  DIR/SP/G
                 (UTC) (F)  (DEG/KT/KT) (MB)
MICHIGAN CITY    1800   33  220/ 10/ 11   N/A

$$

INZ004-005-014>016-021>024-241900-
NORTH CENTRAL INDIANA

CITY           SKY/WX    TMP DP  RH WIND       PRES   REMARKS
ELKHART        PTSUNNY   36  28  75 W12       29.66F
GOSHEN         PTSUNNY   36  31  82 W12       29.64F
6HR MIN TEMP:  24; 6HR MAX TEMP:  36;

LOGANSPORT +   MOSUNNY   36  32  87 W12       29.71F
PERU/GRISSOM   PTSUNNY   34  30  85 W13       29.69F WCI  25
6HR MIN TEMP:  24; 6HR MAX TEMP:  34;

ROCHESTER +    MOSUNNY   39  32  75 W9        29.68F
SOUTH BEND     MOSUNNY   38  30  73 W10       29.67F
6HR MIN TEMP:  25; 6HR MAX TEMP:  39;

WARSAW +       CLOUDY    36  30  80 W6        29.66F

$$

INZ006>009-017-018-025>027-241900-
NORTHEAST INDIANA

CITY           SKY/WX    TMP DP  RH WIND       PRES   REMARKS
ANGOLA *+      CLOUDY    32  28  86 W9        29.62F WCI  24
AUBURN +       CLOUDY    32  28  86 W7        29.65F HAZE    WCI  26
FORT WAYNE     CLOUDY    32  27  81 W13       29.67F HAZE    WCI  22
6HR MIN TEMP:  25; 6HR MAX TEMP:  32;

HUNTINGTON +   CLOUDY    32  25  74 W10G16    29.67F WCI  24
6HR MIN TEMP:  26; 6HR MAX TEMP:  32;


$$

INZ028-029-035-036-043>045-051>053-241900-
WEST CENTRAL INDIANA

CITY           SKY/WX    TMP DP  RH WIND       PRES   REMARKS
GREENCASTLE +  CLOUDY    34  27  75 W6        29.77F WCI  29
LAFAYETTE      MOSUNNY   38  32  79 W12       29.73F
6HR MIN TEMP:  24; 6HR MAX TEMP:  38;

TERRE HAUTE    CLOUDY    37  30  75 W5        29.79F
6HR MIN TEMP:  24; 6HR MAX TEMP:  37;


$$

INZ030>032-037>040-046>048-054>057-064-065-241900-
CENTRAL INDIANA

CITY           SKY/WX    TMP DP  RH WIND       PRES   REMARKS
ANDERSON       CLOUDY    32  27  80 W8        29.72F WCI  25
CP ATTERBURY + CLOUDY    37  28  70 W6        29.75F
COLUMBUS       CLOUDY    37  25  60 W12       29.75F
INDIANAPOLIS   CLOUDY    32  27  81 W14       29.74F WCI  22
6HR MIN TEMP:  24; 6HR MAX TEMP:  32;

-EAGLE CREEK   CLOUDY    33  27  78 W8        29.74F WCI  26
6HR MIN TEMP:  25; 6HR MAX TEMP:  33;

KOKOMO *+      CLOUDY    34  27  75 W14       29.71F WCI  24
MARION +       CLOUDY    32  28  86 W12       29.71S FOG     WCI  23
MT COMFORT *+  CLOUDY    34  23  64 W13       29.73F WCI  25
SHELBYVILLE    CLOUDY    36  27  69 W14       29.73F
6HR MIN TEMP:  26; 6HR MAX TEMP:  36;

ZIONSVILLE +   CLOUDY    34  28  79 W13       29.73F WCI  25
6HR MIN TEMP:  26; 6HR MAX TEMP:  34;


$$

INZ033-034-041-042-049-050-058-059-241900-
EAST CENTRAL INDIANA

CITY           SKY/WX    TMP DP  RH WIND       PRES   REMARKS
MUNCIE         CLOUDY    32  27  81 W12       29.70F HAZE    WCI  23
6HR MIN TEMP:  26; 6HR MAX TEMP:  33;


$$

INZ060-061-067>069-081>083-085>088-241900-
SOUTHWEST INDIANA

CITY           SKY/WX    TMP DP  RH WIND       PRES   REMARKS
EVANSVILLE     SUNNY     45  29  53 W12       29.85F
6HR MIN TEMP:  27; 6HR MAX TEMP:  45;

HUNTINGBURG *+ MOSUNNY   41  30  65 W14G20    29.83F
6HR MIN TEMP:  25; 6HR MAX TEMP:  41;

WASHINGTON +   CLOUDY    38  28  64 W8        29.81F
6HR MIN TEMP:  28; 6HR MAX TEMP:  39;


$$

INZ062-063-066-070>080-084-089>092-241900-
SOUTH CENTRAL AND SOUTHEAST INDIANA

CITY           SKY/WX    TMP DP  RH WIND       PRES   REMARKS
BLOOMINGTON    CLOUDY    35  28  75 W10       29.76F WCI  27
6HR MIN TEMP:  27; 6HR MAX TEMP:  36;

SEYMOUR +      CLOUDY    41  28  60 W15       29.76

$$




USA.gov is the U.S. government's official web portal to all federal, state and local government web resources and services.